Fort Meade, MD

11:58 PM EDT on September 25, 2016 (GMT -0400)
Tipton

Weather History for KFME - October, 2013

Change the Weather History Date:

Sunday, October 20, 2013

  Actual Average (KBWI) Record (KBWI)
Temperature  
Mean Temperature 50 °F 55 °F  
Max Temperature 62 °F 66 °F 87 °F (1969)
Min Temperature 37 °F 44 °F 28 °F (1972)
Degree Days  
Heating Degree Days 16 11  
Month to date heating degree days 159  
Since 1 July heating degree days 212  
Cooling Degree Days 0 0  
Month to date cooling degree days 15  
Year to date cooling degree days 1160  
Moisture  
Dew Point 36 °F    
Average Humidity 63    
Maximum Humidity 100    
Minimum Humidity 32    
Precipitation  
Precipitation 0.00 in 0.10 in 2.69 in (1873)
Month to date precipitation 2.17  
Year to date precipitation 34.05  
Snow  
Snow 0.00 in 0.00 in T in (1952)
Month to date snowfall 0.0  
Since 1 July snowfall 0.0  
Snow Depth -    
Sea Level Pressure  
Sea Level Pressure 30.04 in    
Wind  
Wind Speed 7 mph (WNW)    
Max Wind Speed 12 mph    
Max Gust Speed 21 mph    
Visibility 10 miles    
Events      
T = Trace of Precipitation, MM = Missing Value Source: NWS Daily Summary

Daily Weather History Graph

Daily Weather History Graph

Search for Another Location

Airport or City:

Trip Planner

Search our weather history database for the weather conditions in past years. The results will help you decide how hot, cold, wet, or windy it might be!

Date:

Astronomy

Oct. 20, 2013 Rise Set
Actual Time 7:21 AM EDT 6:20 PM EDT
Civil Twilight 6:54 AM EDT 6:48 PM EDT
Nautical Twilight 6:23 AM EDT 7:19 PM EDT
Astronomical Twilight 5:52 AM EDT 7:50 PM EDT
Moon 7:29 PM EDT (10/20) 8:56 AM EDT (10/20)
Length of Visible Light 11h 53m
Length of Day
10h 59m
Full, 97% of the Moon is Illuminated
Oct 20
Full
Oct 26
Last Quarter
Nov 3
New
Nov 10
First Quarter
Nov 17
Full

Hourly Weather History & Observations

Time (EDT) Temp. Windchill Dew Point Humidity Pressure Visibility Wind Dir Wind Speed Gust Speed Precip Events Conditions
12:18 AM 50.0 °F - 46.4 °F 87% 29.89 in 10.0 mi West 6.9 mph - N/A   Clear
12:36 AM 51.8 °F - 44.6 °F 76% 29.89 in 10.0 mi West 6.9 mph 16.1 mph N/A   Clear
12:57 AM 51.8 °F - 42.8 °F 71% 29.89 in 10.0 mi WNW 6.9 mph - N/A   Clear
1:18 AM 51.8 °F - 42.8 °F 71% 29.90 in 10.0 mi WNW 11.5 mph 16.1 mph N/A   Clear
1:39 AM 53.6 °F - 41.0 °F 62% 29.91 in 10.0 mi WNW 6.9 mph 20.7 mph N/A   Clear
1:57 AM 53.6 °F - 37.4 °F 54% 29.91 in 10.0 mi WNW 11.5 mph 17.3 mph N/A   Clear
2:18 AM 51.8 °F - 39.2 °F 62% 29.92 in 10.0 mi WNW 11.5 mph 20.7 mph N/A   Clear
2:39 AM 51.8 °F - 37.4 °F 58% 29.94 in 10.0 mi NW 11.5 mph 20.7 mph N/A   Clear
2:57 AM 50.0 °F - 37.4 °F 62% 29.95 in 10.0 mi WNW 11.5 mph - N/A   Clear
3:18 AM 50.0 °F - 35.6 °F 58% 29.96 in 10.0 mi WNW 8.1 mph - N/A   Clear
3:39 AM 50.0 °F - 35.6 °F 58% 29.96 in 10.0 mi WNW 9.2 mph - N/A   Clear
3:57 AM 48.2 °F - 35.6 °F 62% 29.97 in 10.0 mi WSW 4.6 mph - N/A   Clear
4:18 AM 46.4 °F 44.3 °F 35.6 °F 66% 29.98 in 10.0 mi West 4.6 mph - N/A   Clear
4:39 AM 46.4 °F 44.3 °F 35.6 °F 66% 29.99 in 10.0 mi WNW 4.6 mph - N/A   Clear
4:57 AM 44.6 °F 40.7 °F 35.6 °F 71% 29.99 in 10.0 mi WNW 6.9 mph - N/A   Clear
5:18 AM 44.6 °F 40.7 °F 35.6 °F 71% 30.00 in 10.0 mi West 6.9 mph - N/A   Clear
5:39 AM 44.6 °F - 33.8 °F 66% 30.01 in 10.0 mi Calm Calm - N/A   Clear
5:57 AM 42.8 °F 38.6 °F 35.6 °F 76% 30.01 in 10.0 mi WNW 6.9 mph - N/A   Clear
6:18 AM 44.6 °F 42.2 °F 33.8 °F 66% 30.01 in 10.0 mi West 4.6 mph - N/A   Clear
6:39 AM 42.8 °F 39.3 °F 35.6 °F 76% 30.01 in 10.0 mi WNW 5.8 mph - N/A   Clear
6:57 AM 42.8 °F 40.1 °F 35.6 °F 76% 30.02 in 10.0 mi WNW 4.6 mph - N/A   Clear
7:18 AM 41.0 °F - 35.6 °F 81% 30.02 in 10.0 mi Calm Calm - N/A   Clear
7:39 AM 41.0 °F 38.0 °F 35.6 °F 81% 30.03 in 10.0 mi West 4.6 mph - N/A   Clear
7:57 AM 41.0 °F 38.0 °F 35.6 °F 81% 30.04 in 10.0 mi WNW 4.6 mph - N/A   Clear
8:18 AM 42.8 °F 39.3 °F 35.6 °F 76% 30.05 in 10.0 mi West 5.8 mph - N/A   Clear
8:39 AM 46.4 °F 42.9 °F 35.6 °F 66% 30.06 in 10.0 mi WNW 6.9 mph - N/A   Clear
8:57 AM 48.2 °F - 35.6 °F 62% 30.06 in 10.0 mi WNW 6.9 mph - N/A   Clear
9:18 AM 50.0 °F - 35.6 °F 58% 30.07 in 10.0 mi WNW 6.9 mph - N/A   Clear
9:39 AM 51.8 °F - 35.6 °F 54% 30.07 in 10.0 mi WNW 9.2 mph 17.3 mph N/A   Clear
9:57 AM 53.6 °F - 35.6 °F 51% 30.07 in 10.0 mi West 6.9 mph - N/A   Clear
10:18 AM 55.4 °F - 35.6 °F 47% 30.08 in 10.0 mi WNW 10.4 mph 17.3 mph N/A   Clear
10:39 AM 55.4 °F - 35.6 °F 47% 30.08 in 10.0 mi WNW 9.2 mph 16.1 mph N/A   Clear
11:00 AM 55.4 °F - 35.6 °F 47% 30.08 in 10.0 mi NW 8.1 mph - N/A   Clear
11:18 AM 59.0 °F - 35.6 °F 42% 30.08 in 10.0 mi WNW 10.4 mph 18.4 mph N/A   Clear
11:39 AM 59.0 °F - 35.6 °F 42% 30.08 in 10.0 mi WNW 11.5 mph 18.4 mph N/A   Clear
12:00 PM 59.0 °F - 33.8 °F 39% 30.08 in 10.0 mi WNW 10.4 mph 17.3 mph N/A   Clear
12:18 PM 60.8 °F - 33.8 °F 36% 30.08 in 10.0 mi WNW 10.4 mph 16.1 mph N/A   Clear
12:39 PM 59.0 °F - 33.8 °F 39% 30.08 in 10.0 mi NNW 10.4 mph 18.4 mph N/A   Clear
1:00 PM 60.8 °F - 33.8 °F 36% 30.07 in 10.0 mi West 11.5 mph 17.3 mph N/A   Clear
1:18 PM 60.8 °F - 33.8 °F 36% 30.07 in 10.0 mi NW 10.4 mph 17.3 mph N/A   Clear
1:39 PM 60.8 °F - 33.8 °F 36% 30.07 in 10.0 mi NW 10.4 mph 16.1 mph N/A   Clear
2:00 PM 60.8 °F - 33.8 °F 36% 30.07 in 10.0 mi WNW 8.1 mph - N/A   Clear
2:18 PM 60.8 °F - 33.8 °F 36% 30.06 in 10.0 mi NNW 4.6 mph - N/A   Clear
2:39 PM 62.6 °F - 33.8 °F 34% 30.05 in 10.0 mi WNW 9.2 mph - N/A   Clear
3:00 PM 62.6 °F - 32.0 °F 32% 30.05 in 10.0 mi NNW 8.1 mph - N/A   Clear
3:18 PM 62.6 °F - 33.8 °F 34% 30.05 in 10.0 mi West 6.9 mph - N/A   Clear
3:39 PM 62.6 °F - 33.8 °F 34% 30.05 in 10.0 mi NNW 9.2 mph - N/A   Clear
4:00 PM 60.8 °F - 32.0 °F 34% 30.05 in 10.0 mi WNW 5.8 mph - N/A   Clear
4:18 PM 60.8 °F - 32.0 °F 34% 30.05 in 10.0 mi West 11.5 mph - N/A   Clear
4:39 PM 59.0 °F - 32.0 °F 36% 30.06 in 10.0 mi West 5.8 mph - N/A   Clear
5:00 PM 59.0 °F - 33.8 °F 39% 30.06 in 10.0 mi West 4.6 mph - N/A   Clear
5:18 PM 57.2 °F - 35.6 °F 44% 30.06 in 10.0 mi West 6.9 mph - N/A   Clear
5:39 PM 55.4 °F - 35.6 °F 47% 30.06 in 10.0 mi WNW 4.6 mph - N/A   Clear
6:00 PM 53.6 °F - 37.4 °F 54% 30.07 in 10.0 mi West 3.5 mph - N/A   Clear
6:18 PM 51.8 °F - 39.2 °F 62% 30.07 in 10.0 mi Calm Calm - N/A   Clear
6:39 PM 50.0 °F - 41.0 °F 71% 30.08 in 10.0 mi Calm Calm - N/A   Clear
7:00 PM 46.4 °F - 39.2 °F 76% 30.08 in 10.0 mi Calm Calm - N/A   Clear
7:21 PM 44.6 °F - 41.0 °F 87% 30.09 in 10.0 mi Calm Calm - N/A   Clear
7:39 PM 44.6 °F - 39.2 °F 81% 30.10 in 10.0 mi Calm Calm - N/A   Clear
8:00 PM 42.8 °F - 41.0 °F 93% 30.10 in 10.0 mi Calm Calm - N/A   Clear
8:21 PM 42.8 °F - 39.2 °F 87% 30.10 in 10.0 mi Calm Calm - N/A   Clear
8:39 PM 42.8 °F - 41.0 °F 93% 30.11 in 10.0 mi Calm Calm - N/A   Clear
9:00 PM 41.0 °F - 39.2 °F 93% 30.11 in 10.0 mi Calm Calm - N/A   Clear
9:21 PM 41.0 °F - 37.4 °F 87% 30.11 in 10.0 mi Calm Calm - N/A   Clear
9:39 PM 41.0 °F - 37.4 °F 87% 30.12 in 10.0 mi Calm Calm - N/A   Clear
10:00 PM 39.2 °F - 37.4 °F 93% 30.12 in 10.0 mi Calm Calm - N/A   Clear
10:21 PM 39.2 °F - 37.4 °F 93% 30.12 in 10.0 mi Calm Calm - N/A   Clear
10:39 PM 39.2 °F - 37.4 °F 93% 30.13 in 10.0 mi Calm Calm - N/A   Clear
11:00 PM 37.4 °F - 37.4 °F 100% 30.13 in 10.0 mi Calm Calm - N/A   Clear
11:21 PM 37.4 °F - 37.4 °F 100% 30.13 in 10.0 mi Calm Calm - N/A   Clear
11:39 PM 37.4 °F - 35.6 °F 93% 30.13 in 10.0 mi Calm Calm - N/A   Clear